AFL615 UDYZ-URKK

Flight info

Callsign AFL615
Flight time 1h 26m
Altitude 36000
Route TIBLO T918 OGEVI DCT IBERI DCT BANUT/K0824F360 A277 LAMET B950 SIBAN SIBAN6R
Aircraft B738/M-SDE2E3FGHIJ1RWY/LB1U1

Departure

Time 2026-05-09 14:33
Airport Zvartnots International Airport (UDYZ)

Arrival

Time 2026-05-09 16:00
Airport Krasnodar Pashkovsky International Airport (URKK)
Time Latitude Longitude Altitude Speed Heading
2026-05-09 13:58 40.15087 44.39939 2836 ft 0 kts 359°
2026-05-09 14:22 40.15085 44.39939 2836 ft 2 kts 359°
2026-05-09 14:22 40.15059 44.39939 2835 ft 4 kts 360°
2026-05-09 14:22 40.15039 44.39940 2834 ft 4 kts 359°
2026-05-09 14:22 40.15012 44.39941 2834 ft 4 kts 350°
2026-05-09 14:23 40.14989 44.39951 2836 ft 4 kts 302°
2026-05-09 14:23 40.14985 44.39979 2835 ft 4 kts 270°
2026-05-09 14:23 40.14985 44.40015 2836 ft 4 kts 270°
2026-05-09 14:23 40.14985 44.40050 2836 ft 4 kts 270°
2026-05-09 14:24 40.14986 44.40085 2837 ft 4 kts 270°
2026-05-09 14:24 40.14986 44.40121 2837 ft 4 kts 270°
2026-05-09 14:24 40.14986 44.40156 2837 ft 4 kts 270°
2026-05-09 14:24 40.14986 44.40191 2836 ft 4 kts 270°
2026-05-09 14:25 40.14986 44.40215 2836 ft 0 kts 270°
2026-05-09 14:28 40.14986 44.40214 2836 ft 0 kts 270°
2026-05-09 14:28 40.14986 44.40189 2836 ft 6 kts 270°
2026-05-09 14:28 40.14986 44.40123 2836 ft 8 kts 270°
2026-05-09 14:29 40.14968 44.40050 2835 ft 9 kts 223°
2026-05-09 14:29 40.14910 44.40033 2836 ft 9 kts 181°
2026-05-09 14:29 40.14849 44.40032 2836 ft 9 kts 180°
2026-05-09 14:29 40.14790 44.40034 2835 ft 8 kts 180°
2026-05-09 14:30 40.14745 44.39992 2835 ft 8 kts 242°
2026-05-09 14:30 40.14736 44.39899 2834 ft 13 kts 269°
2026-05-09 14:30 40.14735 44.39761 2832 ft 17 kts 269°
2026-05-09 14:30 40.14734 44.39601 2831 ft 19 kts 269°
2026-05-09 14:31 40.14732 44.39419 2829 ft 21 kts 269°
2026-05-09 14:31 40.14731 44.39219 2828 ft 23 kts 269°
2026-05-09 14:31 40.14729 44.39011 2829 ft 23 kts 269°
2026-05-09 14:31 40.14728 44.38808 2831 ft 22 kts 269°
2026-05-09 14:32 40.14728 44.38612 2830 ft 21 kts 270°
2026-05-09 14:32 40.14712 44.38449 2828 ft 16 kts 234°
2026-05-09 14:32 40.14720 44.38376 2831 ft 4 kts 24°
2026-05-09 14:32 40.14727 44.38418 2829 ft 7 kts 89°
2026-05-09 14:33 40.14728 44.38670 2829 ft 61 kts 89°
2026-05-09 14:33 40.14734 44.39523 2830 ft 127 kts 90°
2026-05-09 14:33 40.14744 44.40910 2968 ft 169 kts 89°
2026-05-09 14:33 40.14760 44.42454 3792 ft 167 kts 90°
2026-05-09 14:34 40.14750 44.44003 4491 ft 172 kts 96°
2026-05-09 14:34 40.14254 44.45493 4922 ft 197 kts 132°
2026-05-09 14:34 40.12989 44.46400 5140 ft 223 kts 170°
2026-05-09 14:34 40.11399 44.46111 5323 ft 246 kts 206°
2026-05-09 14:35 40.10082 44.44560 5524 ft 271 kts 240°
2026-05-09 14:35 40.09647 44.42166 6164 ft 277 kts 276°
2026-05-09 14:35 40.10312 44.39874 6962 ft 277 kts 306°
2026-05-09 14:35 40.11530 44.37919 7763 ft 279 kts 311°
2026-05-09 14:36 40.12796 44.35985 8532 ft 282 kts 310°
2026-05-09 14:36 40.14051 44.33999 9340 ft 284 kts 309°
2026-05-09 14:36 40.15280 44.31968 10137 ft 286 kts 308°
2026-05-09 14:36 40.16521 44.29843 10490 ft 305 kts 307°
2026-05-09 14:37 40.17835 44.27530 10671 ft 328 kts 307°
2026-05-09 14:37 40.19209 44.25063 11091 ft 340 kts 306°
2026-05-09 14:37 40.20580 44.22566 11733 ft 345 kts 306°
2026-05-09 14:37 40.21975 44.20007 12469 ft 347 kts 306°
2026-05-09 14:38 40.23375 44.17424 13243 ft 349 kts 305°
2026-05-09 14:38 40.24783 44.14819 14018 ft 352 kts 305°
2026-05-09 14:38 40.26203 44.12186 14695 ft 356 kts 305°
2026-05-09 14:38 40.27691 44.09581 15382 ft 360 kts 312°
2026-05-09 14:39 40.29661 44.07549 16059 ft 365 kts 331°
2026-05-09 14:39 40.32045 44.06366 16778 ft 370 kts 344°
2026-05-09 14:39 40.34522 44.05544 17431 ft 375 kts 345°
2026-05-09 14:39 40.37071 44.04720 18052 ft 380 kts 345°
2026-05-09 14:40 40.39647 44.03886 18681 ft 383 kts 345°
2026-05-09 14:40 40.42248 44.03035 19275 ft 387 kts 344°
2026-05-09 14:40 40.44866 44.02168 19872 ft 390 kts 344°
2026-05-09 14:40 40.47510 44.01283 20449 ft 394 kts 344°
2026-05-09 14:41 40.50174 44.00386 21026 ft 397 kts 343°
2026-05-09 14:41 40.52858 43.99477 21635 ft 399 kts 343°
2026-05-09 14:41 40.55559 43.98561 22214 ft 402 kts 343°
2026-05-09 14:41 40.58281 43.97635 22752 ft 406 kts 343°
2026-05-09 14:42 40.60994 43.96712 23260 ft 410 kts 343°
2026-05-09 14:42 40.63767 43.95767 23765 ft 414 kts 343°
2026-05-09 14:42 40.66572 43.94812 24219 ft 417 kts 343°
2026-05-09 14:42 40.69382 43.93854 24700 ft 418 kts 343°
2026-05-09 14:43 40.72199 43.92893 25201 ft 419 kts 343°
2026-05-09 14:43 40.75021 43.91930 25700 ft 419 kts 343°
2026-05-09 14:43 40.77854 43.90962 26119 ft 422 kts 343°
2026-05-09 14:43 40.80709 43.89990 26471 ft 426 kts 343°
2026-05-09 14:44 40.83589 43.89007 26875 ft 428 kts 343°
2026-05-09 14:44 40.86436 43.88029 27334 ft 429 kts 343°
2026-05-09 14:44 40.89337 43.87030 27654 ft 433 kts 343°
2026-05-09 14:44 40.92264 43.86022 28040 ft 435 kts 343°
2026-05-09 14:45 40.95196 43.85013 28475 ft 436 kts 343°
2026-05-09 14:45 40.98137 43.84001 28858 ft 438 kts 343°
2026-05-09 14:45 41.01093 43.82983 29197 ft 440 kts 343°
2026-05-09 14:45 41.04067 43.81958 29543 ft 443 kts 343°
2026-05-09 14:46 41.07052 43.80929 29875 ft 445 kts 343°
2026-05-09 14:46 41.09993 43.79834 30228 ft 444 kts 338°
2026-05-09 14:46 41.12724 43.77977 30622 ft 439 kts 323°
2026-05-09 14:46 41.15061 43.75421 31123 ft 433 kts 313°
2026-05-09 14:47 41.16934 43.72325 31547 ft 430 kts 303°
2026-05-09 14:47 41.18600 43.69038 31936 ft 428 kts 303°
2026-05-09 14:47 41.20246 43.65744 32311 ft 427 kts 303°
2026-05-09 14:47 41.21886 43.62460 32724 ft 425 kts 303°
2026-05-09 14:48 41.23522 43.59200 33157 ft 423 kts 303°
2026-05-09 14:48 41.25155 43.55966 33602 ft 420 kts 303°
2026-05-09 14:48 41.26760 43.52800 33999 ft 418 kts 303°
2026-05-09 14:48 41.28385 43.49599 34334 ft 417 kts 303°
2026-05-09 14:49 41.30010 43.46403 34588 ft 417 kts 303°
2026-05-09 14:49 41.31635 43.43204 34815 ft 418 kts 303°
2026-05-09 14:49 41.33262 43.40000 35064 ft 418 kts 303°
2026-05-09 14:49 41.34894 43.36782 35176 ft 422 kts 303°
2026-05-09 14:50 41.38194 43.30266 35164 ft 424 kts 303°
2026-05-09 14:50 41.41441 43.23842 35166 ft 417 kts 303°
2026-05-09 14:51 41.44671 43.17436 35164 ft 415 kts 303°
2026-05-09 14:51 41.47884 43.11051 35154 ft 414 kts 303°
2026-05-09 14:52 41.51090 43.04665 35153 ft 414 kts 303°
2026-05-09 14:52 41.54298 42.98261 35302 ft 420 kts 303°
2026-05-09 14:53 41.55917 42.95025 35557 ft 420 kts 303°
2026-05-09 14:53 41.57536 42.91785 35863 ft 418 kts 302°
2026-05-09 14:53 41.59148 42.88556 36115 ft 418 kts 303°
2026-05-09 14:53 41.60769 42.85306 36117 ft 423 kts 303°
2026-05-09 14:54 41.64037 42.78742 36147 ft 424 kts 303°
2026-05-09 14:54 41.67272 42.72230 36137 ft 418 kts 303°
2026-05-09 14:55 41.70458 42.65805 36138 ft 416 kts 303°
2026-05-09 14:55 41.73654 42.59343 36133 ft 416 kts 303°
2026-05-09 14:56 41.76846 42.52876 36105 ft 416 kts 303°
2026-05-09 14:56 41.80017 42.46440 36108 ft 417 kts 303°
2026-05-09 14:57 41.83211 42.39941 36113 ft 418 kts 303°
2026-05-09 14:57 41.86410 42.33420 36093 ft 419 kts 303°
2026-05-09 14:58 41.89613 42.26875 36094 ft 420 kts 303°
2026-05-09 14:58 41.92798 42.20353 36080 ft 421 kts 302°
2026-05-09 14:59 41.96006 42.13770 36063 ft 422 kts 302°
2026-05-09 14:59 41.99211 42.07178 36073 ft 422 kts 302°
2026-05-09 15:00 42.02415 42.00575 36079 ft 421 kts 302°
2026-05-09 15:00 42.05613 41.93968 36071 ft 421 kts 302°
2026-05-09 15:01 42.10380 41.84095 36057 ft 421 kts 302°
2026-05-09 15:02 42.13565 41.77480 36054 ft 421 kts 302°
2026-05-09 15:02 42.16747 41.70865 36055 ft 420 kts 303°
2026-05-09 15:03 42.19962 41.64285 36071 ft 420 kts 303°
2026-05-09 15:03 42.23190 41.57706 36070 ft 420 kts 303°
2026-05-09 15:04 42.26387 41.51166 36064 ft 420 kts 303°
2026-05-09 15:06 42.39192 41.24775 36069 ft 421 kts 303°
2026-05-09 15:06 42.42391 41.18145 36066 ft 421 kts 303°
2026-05-09 15:07 42.45592 41.11497 36082 ft 421 kts 303°
2026-05-09 15:07 42.48794 41.04831 36078 ft 422 kts 303°
2026-05-09 15:08 42.51959 40.98226 36080 ft 422 kts 303°
2026-05-09 15:08 42.56754 40.88193 36063 ft 422 kts 303°
2026-05-09 15:10 42.69481 40.61399 36071 ft 423 kts 303°
2026-05-09 15:11 42.72662 40.54665 36082 ft 423 kts 302°
2026-05-09 15:11 42.75839 40.47923 36083 ft 423 kts 302°
2026-05-09 15:12 42.78993 40.41214 36085 ft 424 kts 302°
2026-05-09 15:12 42.82167 40.34450 36085 ft 424 kts 302°
2026-05-09 15:13 42.85335 40.27680 36082 ft 424 kts 302°
2026-05-09 15:13 42.88503 40.20896 36084 ft 424 kts 302°
2026-05-09 15:14 42.91667 40.14104 36084 ft 424 kts 302°
2026-05-09 15:14 42.94809 40.07343 36088 ft 425 kts 302°
2026-05-09 15:15 42.97436 40.01682 36088 ft 425 kts 302°
2026-05-09 15:15 43.01008 39.93607 36088 ft 425 kts 299°
2026-05-09 15:16 43.03856 39.86530 36084 ft 425 kts 299°
2026-05-09 15:16 43.06678 39.79484 36091 ft 425 kts 299°
2026-05-09 15:17 43.09538 39.72398 36089 ft 426 kts 299°
2026-05-09 15:17 43.12406 39.65305 36091 ft 426 kts 299°
2026-05-09 15:18 43.15272 39.58205 36089 ft 426 kts 299°
2026-05-09 15:18 43.18116 39.51138 36092 ft 426 kts 299°
2026-05-09 15:19 43.20975 39.44017 36089 ft 427 kts 299°
2026-05-09 15:19 43.23833 39.36881 36093 ft 427 kts 299°
2026-05-09 15:20 43.27633 39.27371 36089 ft 427 kts 299°
2026-05-09 15:21 43.30956 39.19059 36093 ft 427 kts 299°
2026-05-09 15:21 43.34190 39.12261 36088 ft 427 kts 318°
2026-05-09 15:21 43.36628 39.09960 36098 ft 427 kts 333°
2026-05-09 15:22 43.39418 39.08556 36089 ft 429 kts 348°
2026-05-09 15:22 43.44407 39.07910 35455 ft 438 kts 356°
2026-05-09 15:22 43.47441 39.07732 34927 ft 435 kts 356°
2026-05-09 15:23 43.50446 39.07576 34526 ft 430 kts 356°
2026-05-09 15:23 43.54378 39.07346 33947 ft 424 kts 356°
2026-05-09 15:23 43.56364 39.07214 33618 ft 422 kts 356°
2026-05-09 15:23 43.59279 39.07004 33181 ft 417 kts 355°
2026-05-09 15:24 43.62120 39.06788 32755 ft 412 kts 355°
2026-05-09 15:24 43.64969 39.06566 32351 ft 408 kts 355°
2026-05-09 15:24 43.67789 39.06344 31940 ft 404 kts 356°
2026-05-09 15:24 43.70584 39.06124 31530 ft 400 kts 356°
2026-05-09 15:25 43.73355 39.05906 31129 ft 397 kts 356°
2026-05-09 15:25 43.76986 39.05620 30608 ft 393 kts 356°
2026-05-09 15:25 43.78825 39.05476 30344 ft 391 kts 356°
2026-05-09 15:26 43.84216 39.05052 29479 ft 384 kts 356°
2026-05-09 15:26 43.86838 39.04846 29072 ft 380 kts 356°
2026-05-09 15:26 43.89464 39.04640 28669 ft 377 kts 356°
2026-05-09 15:26 43.92069 39.04434 28277 ft 373 kts 356°
2026-05-09 15:27 43.94647 39.04231 27864 ft 370 kts 356°
2026-05-09 15:27 43.97215 39.04027 27444 ft 368 kts 356°
2026-05-09 15:27 43.99760 39.03825 27053 ft 365 kts 356°
2026-05-09 15:27 44.02284 39.03625 26665 ft 363 kts 356°
2026-05-09 15:28 44.04795 39.03425 26285 ft 360 kts 356°
2026-05-09 15:28 44.07288 39.03227 25904 ft 358 kts 356°
2026-05-09 15:28 44.09738 39.03032 25529 ft 356 kts 356°
2026-05-09 15:28 44.12207 39.02835 25154 ft 355 kts 356°
2026-05-09 15:29 44.14658 39.02538 24761 ft 354 kts 351°
2026-05-09 15:29 44.17067 39.01840 24344 ft 354 kts 347°
2026-05-09 15:29 44.19456 39.01034 23967 ft 352 kts 346°
2026-05-09 15:29 44.21834 39.00224 23547 ft 352 kts 346°
2026-05-09 15:30 44.24212 38.99430 23131 ft 350 kts 347°
2026-05-09 15:30 44.26543 38.98668 22741 ft 348 kts 347°
2026-05-09 15:30 44.28901 38.97909 22356 ft 346 kts 347°
2026-05-09 15:30 44.31239 38.97160 21977 ft 344 kts 347°
2026-05-09 15:31 44.33563 38.96414 21603 ft 341 kts 346°
2026-05-09 15:31 44.35859 38.95609 21237 ft 340 kts 345°
2026-05-09 15:31 44.38137 38.94765 20865 ft 338 kts 345°
2026-05-09 15:31 44.40400 38.93916 20502 ft 336 kts 345°
2026-05-09 15:32 44.42656 38.93070 20146 ft 335 kts 345°
2026-05-09 15:32 44.44896 38.92233 19786 ft 333 kts 345°
2026-05-09 15:32 44.47106 38.91410 19445 ft 332 kts 345°
2026-05-09 15:32 44.49334 38.90582 19085 ft 331 kts 344°
2026-05-09 15:33 44.51559 38.89756 18725 ft 330 kts 345°
2026-05-09 15:33 44.53775 38.88934 18355 ft 330 kts 344°
2026-05-09 15:33 44.55984 38.88113 17944 ft 329 kts 344°
2026-05-09 15:33 44.58200 38.87289 17574 ft 327 kts 344°
2026-05-09 15:34 44.60393 38.86474 17198 ft 326 kts 344°
2026-05-09 15:34 44.62580 38.85660 16850 ft 324 kts 345°
2026-05-09 15:34 44.64755 38.84850 16492 ft 323 kts 345°
2026-05-09 15:34 44.66893 38.84053 16150 ft 321 kts 344°
2026-05-09 15:35 44.69049 38.83249 15798 ft 320 kts 344°
2026-05-09 15:35 44.71198 38.82447 15449 ft 319 kts 345°
2026-05-09 15:35 44.73339 38.81648 15113 ft 318 kts 345°
2026-05-09 15:35 44.75491 38.80974 14755 ft 317 kts 356°
2026-05-09 15:36 44.77651 38.81427 14412 ft 315 kts 22°
2026-05-09 15:36 44.79495 38.83024 14081 ft 312 kts 43°
2026-05-09 15:36 44.81007 38.85189 13725 ft 311 kts 47°
2026-05-09 15:36 44.82486 38.87419 13350 ft 310 kts 47°
2026-05-09 15:37 44.83959 38.89626 12995 ft 309 kts 47°
2026-05-09 15:37 44.85414 38.91783 12653 ft 307 kts 47°
2026-05-09 15:37 44.86883 38.93948 12322 ft 305 kts 47°
2026-05-09 15:37 44.88251 38.96221 11963 ft 303 kts 62°
2026-05-09 15:38 44.89092 38.98942 11662 ft 304 kts 70°
2026-05-09 15:38 44.89854 39.01746 11309 ft 308 kts 70°
2026-05-09 15:38 44.90619 39.04569 10974 ft 308 kts 70°
2026-05-09 15:38 44.91390 39.07387 10614 ft 307 kts 70°
2026-05-09 15:39 44.92162 39.10187 10266 ft 305 kts 70°
2026-05-09 15:39 44.92931 39.12957 9994 ft 297 kts 70°
2026-05-09 15:39 44.93653 39.15547 9961 ft 281 kts 70°
2026-05-09 15:39 44.94386 39.18182 9276 ft 292 kts 70°
2026-05-09 15:40 44.95130 39.20858 8846 ft 294 kts 70°
2026-05-09 15:40 44.95873 39.23525 8495 ft 291 kts 70°
2026-05-09 15:40 44.96611 39.26176 8161 ft 289 kts 70°
2026-05-09 15:40 44.97340 39.28798 7830 ft 283 kts 70°
2026-05-09 15:41 44.98049 39.31349 7506 ft 275 kts 70°
2026-05-09 15:41 44.98850 39.33761 7190 ft 271 kts 58°
2026-05-09 15:41 44.99997 39.35874 6899 ft 271 kts 53°
2026-05-09 15:41 45.01157 39.37929 6596 ft 271 kts 53°
2026-05-09 15:42 45.02315 39.40021 6277 ft 270 kts 54°
2026-05-09 15:42 45.03459 39.42122 5957 ft 270 kts 54°
2026-05-09 15:42 45.04595 39.44223 5646 ft 269 kts 54°
2026-05-09 15:42 45.05728 39.46325 5338 ft 268 kts 54°
2026-05-09 15:43 45.07088 39.48116 5010 ft 271 kts 28°
2026-05-09 15:43 45.08906 39.48746 4722 ft 272 kts 359°
2026-05-09 15:43 45.10721 39.48086 4400 ft 269 kts 332°
2026-05-09 15:43 45.12252 39.46602 4114 ft 266 kts 323°
2026-05-09 15:44 45.13696 39.45025 3804 ft 266 kts 322°
2026-05-09 15:44 45.15000 39.43190 3479 ft 266 kts 300°
2026-05-09 15:44 45.15415 39.40693 3271 ft 260 kts 265°
2026-05-09 15:44 45.14765 39.38399 3024 ft 250 kts 229°
2026-05-09 15:45 45.13455 39.36869 2753 ft 242 kts 220°
2026-05-09 15:45 45.12316 39.35167 2466 ft 235 kts 232°
2026-05-09 15:45 45.11326 39.33357 2191 ft 231 kts 232°
2026-05-09 15:45 45.10349 39.31581 1925 ft 227 kts 233°
2026-05-09 15:46 45.09404 39.29840 1652 ft 224 kts 233°
2026-05-09 15:46 45.08464 39.28106 1390 ft 221 kts 233°
2026-05-09 15:46 45.07538 39.26400 1125 ft 216 kts 233°
2026-05-09 15:46 45.06645 39.24752 901 ft 205 kts 233°
2026-05-09 15:47 45.05810 39.23211 641 ft 189 kts 232°
2026-05-09 15:47 45.05045 39.21798 406 ft 173 kts 232°
2026-05-09 15:47 45.04329 39.20485 299 ft 174 kts 231°
2026-05-09 15:47 45.03646 39.19349 1386 ft 138 kts 231°
2026-05-09 15:48 45.03002 39.18249 1920 ft 155 kts 227°
2026-05-09 15:48 45.01950 39.17659 2316 ft 178 kts 174°
2026-05-09 15:48 45.00701 39.17943 2801 ft 185 kts 166°
2026-05-09 15:48 44.99528 39.18638 3004 ft 183 kts 146°
2026-05-09 15:49 44.98595 39.19860 3010 ft 184 kts 127°
2026-05-09 15:49 44.97946 39.21416 3002 ft 185 kts 110°
2026-05-09 15:49 44.97690 39.23298 3023 ft 208 kts 95°
2026-05-09 15:49 44.97580 39.25462 3022 ft 229 kts 93°
2026-05-09 15:50 44.97489 39.27703 2994 ft 234 kts 92°
2026-05-09 15:50 44.97398 39.29993 2982 ft 232 kts 92°
2026-05-09 15:50 44.97307 39.32259 3001 ft 231 kts 93°
2026-05-09 15:50 44.97214 39.34522 3006 ft 231 kts 93°
2026-05-09 15:51 44.97121 39.36779 3013 ft 231 kts 93°
2026-05-09 15:51 44.97026 39.39043 3017 ft 231 kts 92°
2026-05-09 15:51 44.96931 39.41312 3013 ft 232 kts 92°
2026-05-09 15:51 44.96922 39.43587 2998 ft 232 kts 77°
2026-05-09 15:52 44.99401 39.46603 3024 ft 261 kts 17°
2026-05-09 15:52 45.01138 39.47370 3013 ft 261 kts 18°
2026-05-09 15:52 45.02837 39.48175 3007 ft 261 kts 19°
2026-05-09 15:53 45.04553 39.49027 2999 ft 262 kts 19°
2026-05-09 15:53 45.06269 39.49892 2994 ft 261 kts 18°
2026-05-09 15:53 45.08056 39.50179 2995 ft 261 kts 350°
2026-05-09 15:53 45.09732 39.49243 3002 ft 260 kts 327°
2026-05-09 15:54 45.11155 39.47750 2992 ft 249 kts 323°
2026-05-09 15:54 45.12493 39.46288 2978 ft 236 kts 323°
2026-05-09 15:54 45.13710 39.44827 2976 ft 223 kts 309°
2026-05-09 15:54 45.14377 39.42921 2998 ft 215 kts 285°
2026-05-09 15:55 45.14497 39.40864 3006 ft 211 kts 266°
2026-05-09 15:55 45.14077 39.38945 2919 ft 198 kts 238°
2026-05-09 15:55 45.13345 39.37329 2709 ft 192 kts 238°
2026-05-09 15:55 45.12608 39.35785 2496 ft 187 kts 235°
2026-05-09 15:56 45.11851 39.34352 2286 ft 178 kts 233°
2026-05-09 15:56 45.11113 39.32990 2089 ft 173 kts 234°
2026-05-09 15:56 45.10391 39.31661 1864 ft 166 kts 234°
2026-05-09 15:56 45.09718 39.30423 1692 ft 153 kts 233°
2026-05-09 15:57 45.09085 39.29255 1523 ft 149 kts 234°
2026-05-09 15:57 45.08463 39.28107 1342 ft 149 kts 234°
2026-05-09 15:57 45.07824 39.26941 1181 ft 152 kts 234°
2026-05-09 15:57 45.07183 39.25760 983 ft 149 kts 233°
2026-05-09 15:58 45.06572 39.24621 794 ft 141 kts 233°
2026-05-09 15:58 45.05991 39.23554 639 ft 135 kts 232°
2026-05-09 15:58 45.05423 39.22506 502 ft 134 kts 233°
2026-05-09 15:58 45.04854 39.21452 336 ft 135 kts 231°
2026-05-09 15:59 45.04270 39.20382 166 ft 141 kts 232°
2026-05-09 15:59 45.03686 39.19313 113 ft 123 kts 232°
2026-05-09 15:59 45.03260 39.18522 113 ft 84 kts 233°
2026-05-09 15:59 45.02977 39.17998 114 ft 55 kts 232°
2026-05-09 16:00 45.02755 39.17587 112 ft 46 kts 232°
2026-05-09 16:00 45.02674 39.17438 112 ft 20 kts 232°
2026-05-09 16:00 45.02699 39.17228 107 ft 21 kts 328°
2026-05-09 16:00 45.02811 39.17230 106 ft 14 kts 338°
2026-05-09 16:01 45.02887 39.17151 105 ft 15 kts 322°
2026-05-09 16:01 45.02980 39.17049 105 ft 19 kts 322°
2026-05-09 16:01 45.03104 39.16917 105 ft 25 kts 323°
2026-05-09 16:01 45.03252 39.16757 105 ft 29 kts 322°
2026-05-09 16:02 45.03417 39.16576 105 ft 17 kts 322°
2026-05-09 16:02 45.03600 39.16373 105 ft 16 kts 321°
2026-05-09 16:02 45.03686 39.16276 105 ft 16 kts 321°
2026-05-09 16:03 45.03772 39.16189 105 ft 15 kts 328°
2026-05-09 16:03 45.03827 39.16075 103 ft 15 kts 281°
2026-05-09 16:03 45.03847 39.15939 105 ft 14 kts 281°
2026-05-09 16:03 45.03859 39.15808 105 ft 13 kts 277°
2026-05-09 16:04 45.03855 39.15683 104 ft 13 kts 245°
2026-05-09 16:04 45.03815 39.15572 105 ft 13 kts 237°
2026-05-09 16:04 45.03781 39.15462 104 ft 13 kts 273°
2026-05-09 16:04 45.03810 39.15344 105 ft 13 kts 292°
2026-05-09 16:05 45.03831 39.15221 105 ft 14 kts 263°
2026-05-09 16:05 45.03792 39.15100 105 ft 13 kts 241°
2026-05-09 16:05 45.03747 39.14989 105 ft 13 kts 240°
2026-05-09 16:05 45.03701 39.14873 105 ft 14 kts 241°
2026-05-09 16:06 45.03656 39.14757 105 ft 13 kts 241°
2026-05-09 16:06 45.03612 39.14648 105 ft 13 kts 241°
2026-05-09 16:06 45.03570 39.14540 105 ft 12 kts 241°
2026-05-09 16:06 45.03528 39.14435 105 ft 12 kts 240°
2026-05-09 16:07 45.03486 39.14332 105 ft 12 kts 242°
2026-05-09 16:07 45.03454 39.14248 105 ft 4 kts 242°
2026-05-09 16:07 45.03452 39.14215 105 ft 4 kts 285°
2026-05-09 16:07 45.03469 39.14189 105 ft 4 kts 323°
2026-05-09 16:08 45.03489 39.14172 105 ft 2 kts 331°